Regional Weather Roundup
Issued by NWS Newport/Morehead, NC

Current Version | Previous Version | Graphics & Text | Print | Product List | Glossary On
Versions: 1 2 3 4 5 6 7 8 9 10 11 12 13 14 15 16 17 18 19 20 21 22 23 24 25 26 27 28 29 30 31 32 33 34 35 36 37 38 39 40 41 42 43 44 45 46 47 48 49 50
000
ASUS42 KMHX 052226
RWRMHX
WEATHER ROUNDUP FOR EASTERN NORTH CAROLINA
NATIONAL WEATHER SERVICE NEWPORT/MOREHEAD CITY NC
500 PM EST SUN DEC 05 2021

NOTE: "FAIR" INDICATES FEW OR NO CLOUDS BELOW 12,000 FEET
WITH NO SIGNIFICANT WEATHER AND/OR OBSTRUCTIONS TO VISIBILITY

NCZ015>017-031-032-045>047-102-103-052300-
NORTH COAST

CITY           SKY/WX    TMP DP  RH WIND       PRES   REMARKS
EDENTON        MOCLDY    58  52  80 NE6       30.19F
ELIZABETH CITY PTCLDY    56  48  74 N8        30.21F
KITTY HAWK     CLOUDY    60  57  91 NE5       30.17S
MANTEO         MOCLDY    59  58  96 CALM      30.18S

$$

NCZ045>047-081-094-103-104-052300-
CENTRAL COAST

CITY           SKY/WX    TMP DP  RH WIND       PRES   REMARKS
FRISCO         RAIN      63  60  90 VRB5      30.15S FOG

$$

NCZ095-097-098-100-101-052300-
SOUTHERN COAST

CITY           SKY/WX    TMP DP  RH WIND       PRES   REMARKS
PINEY ISLAND     N/A     62  53  72 N8        30.17
BEAUFORT       CLOUDY    62  54  74 NE8       30.16S
CAPE CARTERET  MOCLDY    65  54  67 NE6       30.17S
JACKSONVILLE   PTCLDY    62  53  72 CALM      30.16S
WILMINGTON     MOCLDY    65  56  72 E3        30.17R


$$

NCZ011>013-027>030-043-044-078>080-089-090>093-098-052300-
COASTAL PLAIN

CITY           SKY/WX    TMP DP  RH WIND       PRES   REMARKS
AHOSKIE        CLOUDY    57  45  63 NE3       30.21F
ROCKY MOUNT    NOT AVBL
GREENVILLE     CLOUDY    59  46  63 CALM      30.21S
WASHINGTON     MOCLDY    58  48  69 CALM      30.20S
GOLDSBORO      MOCLDY    62  47  58 NE5       30.16F
KINSTON        CLOUDY    63  50  63 CALM      30.19F
NEW BERN       PTCLDY    60  51  72 NW3       30.18F
HAVELOCK       NOT AVBL
KENANSVILLE    CLOUDY    59  54  82 MISG      30.18S
RICHLANDS      PTCLDY    60  54  80 CALM      30.18S
CLINTON        CLEAR     60  54  82 CALM      30.17F
ELIZABETHTOWN  CLEAR     62  54  75 E5        30.17S
WHITEVILLE     CLEAR     63  56  77 CALM      30.17S

$$

AMZ130-135-150-152-154-156-158-170-250-252-270-ANZ085-086-088-633-658-670-052300-
MARINE OBSERVATIONS

STATION/POSITION TIME  TEMP    WIND        PRES    WAVE   SWELL
                       AIR SEA DIR/SP/G            HT/PER HT/PER
                 (UTC) (F)     (DEG/KT/KT) (MB)    (FT/S) (FT/S)
64 E VA BEACH    2200   64 58   80/ 14/ 17 1021.6
64 E VA BEACH    2100   62 58                N/A     5/ 5
DUCK PIER        2148   58 56   30/ 10/ 11 1021.9
2 E DUCK         2156      57                N/A     5/ 7
10 NE DUCK       2156      57                N/A     5/ 6
OREGON INLET     2136   62 61   60/  8/ 10 1021.5
13E OREGON INLT  2156      67                N/A     6/ 6   7/ 6
13E CAPE HATTERA 2156      70                N/A     5/ 6
HATTERAS CG      2148   62 61   30/  9/ 10 1021.0
DIAMOND BUOY     2210   73 72  200/ 10/ 12 1020.4
CAPE LOOKOUT     2200   60     360/  9/ 11 1021.6
BEAUFORT LAB     2148   62 59   20/  7/  9 1021.7
30 SE NEW RVR IN 2208   66 70  360/ 12/ 16 1020.9
30 SE NEW RVR IN 2156      70                N/A     3/ 4
27 SE WRIGHTSVLE 2208   67 67   50/  8/ 12 1020.8
5 SE WRIGHTSVLE  2208   61 59   80/  6/  8 1021.7
27 SE WRIGHTSVL  2208   67 67   50/  8/ 12 1020.8
FRYING PAN BUOY  2210   67 71  360/ 10/ 12 1021.1
225 S CAPE HAT   2200   74 74  170/  8/ 10 1021.6
41 SE CHARLESTON 2210   69 73   CALM  /  2 1021.1

$$



USA.gov is the U.S. government's official web portal to all federal, state and local government web resources and services.